Location: Catacaguana
(10.4120°N, 66.7591°W)
Time: 05:39:58
(UTC+00:00)

Cosmos 1825 Rocket - Pass Details

Date: 27 May 2022
Orbit: 602 x 631 km, 82.5° (Epoch: 24 June)

Event Time Altitude Azimuth Distance (km) Brightness Sun altitude
Exits shadow 08:58:57 15° 197° (SSW) 1,706 5.4 -15.5°
Maximum altitude 09:02:33 58° 274° (W) 730 3.6 -14.7°
Drops below altitude 10° 09:06:54 10° 354° (N) 1,990 6.4 -13.7°
Sets 09:09:09 0° 358° (N) 2,892 7.3 -13.2°
